Hourly Data Report for September 19, 2017

All times are specified in Local Standard Time (LST). Add 1 hour to adjust for Daylight Saving Time where and when it is observed.

KAMLOOPS A
BRITISH COLUMBIA

50°42'09.000" N
120°26'55.000" W
345.30 m
1163781
71887
YKA

Download Data

Hourly Data (September 2017)
Hourly Data Report for September 19, 2017
Temp Definition
°C
Dew Point Temp Definition
°C
Rel Hum Definition
%
Wind Dir Definition
10's deg

Wind Spd Definition
km/h
Visibility Definition
km
Stn Press Definition
kPa
Hmdx Definition


Wind Chill Definition


Weather Definition


TIME
00:00 Legend Double Dagger 5.9 0.2 67 27 4 64.4 96.46     LegendNANA
01:00 Legend Double Dagger 5.9 0.5 68 0 1 64.4 96.48     Mainly Clear
02:00 Legend Double Dagger 4.9 0.5 73 27 3 64.4 96.51     LegendNANA
03:00 Legend Double Dagger 3.2 -0.6 76 32 5 64.4 96.54     LegendNANA
04:00 Legend Double Dagger 5.0 0.8 74 27 3 64.4 96.57     Mostly Cloudy
05:00 Legend Double Dagger 2.7 0.0 82 36 1 64.4 96.60     LegendNANA
06:00 Legend Double Dagger 2.8 0.5 85 3 3 64.4 96.64     LegendNANA
07:00 Legend Double Dagger 5.3 1.7 78 36 2 64.4 96.67     Mainly Clear
08:00 Legend Double Dagger 7.3 1.5 66 31 7 64.4 96.65     LegendNANA
09:00 Legend Double Dagger 8.8 1.5 60 29 9 64.4 96.62     LegendNANA
10:00 Legend Double Dagger 10.2 1.5 55 20 6 64.4 96.57     Mainly Clear
11:00 Legend Double Dagger 11.9 1.3 48 31 5 64.4 96.50     LegendNANA
12:00 Legend Double Dagger 13.9 1.6 43 28 8 64.4 96.41     LegendNANA
13:00 Legend Double Dagger 16.0 1.1 36 16 6 64.4 96.30     Mainly Clear
14:00 Legend Double Dagger 17.3 -2.5 26 26 5 64.4 96.22     LegendNANA
15:00 Legend Double Dagger 18.5 -2.2 24 29 9 64.4 96.18     LegendNANA
16:00 Legend Double Dagger 17.6 -1.4 27 18 7 64.4 96.15     Mostly Cloudy
17:00 Legend Double Dagger 17.1 -0.4 30 10 7 64.4 96.15     LegendNANA
18:00 Legend Double Dagger 15.2 1.5 39 25 5 64.4 96.15     LegendNANA
19:00 Legend Double Dagger 13.8 0.9 41 16 5 64.4 96.17     Mostly Cloudy
20:00 Legend Double Dagger 13.6 0.6 41 20 4 64.4 96.20     LegendNANA
21:00 Legend Double Dagger 12.8 1.6 46 15 10 64.4 96.17     LegendNANA
22:00 Legend Double Dagger 11.6 2.0 52 13 11 64.4 96.17     Mostly Cloudy
23:00 Legend Double Dagger 9.8 1.6 57 12 5 64.4 96.17     LegendNANA

Notes on Data Quality.

Legend

  • E = Estimated
  • M = Missing
  • NA = Not Available
  • ‡ = Partner data that is not subject to review by the National Climate Archives
Date modified: